Flag for Costa Rica Weather past 2 weeks in Alajuela, Costa Rica

Now
72 °F

Clear.


Feels Like: 72 °F
Forecast: 69 / 81 °F
Wind: 6 mph from East

Location: Juan Santamaria

Current Time: Jul 29, 2014 at 11:28:15 PM

Latest Report: Jul 29, 2014 at 11:00 PM


Visibility: 10 mi

Pressure: 30.06 "Hg

Humidity: 78%

Dew point: 64 °F

Location of AlajuelaLocation

Historic Weather in Alajuela — Graph

°F

Alajuela temperature yesterday

Maximum temperature yesterday: 84 °F (at 11:00 AM)
Minimum temperature yesterday: 66 °F (at 5:00 AM)
Average temperature yesterday: 74 °F

Past Weeks' High & Low Weather Summary

 TemperatureHumidityPressure
High88 °F (Jul 24, 2:00 PM)94% (Jul 18, 8:00 PM)30.10 "Hg (Jul 18, 8:00 PM)
Low66 °F (Jul 28, 5:00 AM)38% (Jul 24, 12:00 PM)29.90 "Hg (Jul 24, 3:00 PM)
Average75 °F68%30.00 "Hg
* Reported Jul 14 10:00 PM — Jul 29 10:00 PM, Alajuela, Weather by CustomWeather, © 2014

Note: Actual official high and low records may vary slightly from our data, if they occured in-between our weather recording intervals... More about our weather records

Advertising

Alajuela weather history for previous 24 hours

 ConditionsComfort  
Time TempWeatherWind HumidityBarometerVisibility
10:00 PM
Jul 29
72 °FClear.2 mph78%30.05 "Hg10 mi
9:00 PM73 °FPartly cloudy.7 mph69%30.05 "HgN/A
8:00 PM75 °FPassing clouds.21 mph65%30.04 "HgN/A
7:00 PM73 °FPassing clouds.5 mph83%30.04 "HgN/A
6:00 PM77 °FPartly cloudy.14 mph61%30.01 "HgN/A
5:00 PM79 °FBroken clouds.8 mph65%30.00 "HgN/A
4:00 PM84 °FBroken clouds.13 mph45%29.97 "HgN/A
3:00 PM86 °FBroken clouds.17 mph43%29.97 "HgN/A
2:00 PM86 °FScattered clouds.12 mph43%29.97 "HgN/A
1:00 PM84 °FBroken clouds.16 mph45%29.99 "HgN/A
12:00 PM81 °FPartly sunny.12 mph51%30.00 "HgN/A
11:00 AM84 °FScattered clouds.15 mph45%30.02 "HgN/A
10:00 AM82 °FScattered clouds.12 mph51%30.04 "HgN/A
9:00 AM79 °FScattered clouds.13 mph58%30.04 "HgN/A
8:00 AM79 °FPartly sunny.7 mph61%30.04 "HgN/A
7:00 AM73 °FPartly sunny.5 mph69%30.03 "HgN/A
6:00 AM72 °FPartly sunny.7 mph73%30.01 "HgN/A
5:00 AM70 °FPassing clouds.7 mph78%30.00 "HgN/A
4:00 AM70 °FPassing clouds.5 mph78%30.00 "HgN/A
3:00 AM70 °FPassing clouds.3 mph78%30.01 "HgN/A
2:00 AM70 °FPassing clouds.5 mph78%30.02 "HgN/A
1:00 AM72 °FPassing clouds.7 mph73%30.03 "HgN/A
12:00 AM70 °FPassing clouds.2 mph78%30.05 "HgN/A
11:00 PM
Jul 28
70 °FPassing clouds.2 mph83%30.06 "HgN/A
Weather by CustomWeather, © 2014

See weather overviewHow to use our weather pages